Regional Weather Roundup
Issued by NWS

Home | Current Version | Previous Version | Graphics & Text | Print | Product List | Glossary Off
Versions: 1 2 3 4 5 6 7 8 9 10 11 12 13 14 15 16 17 18 19 20 21 22 23 24 25 26 27 28 29 30 31 32 33 34 35 36 37 38 39 40 41 42 43 44 45 46 47 48 49 50

000
ASUS43 KDMX 250707
RWRIA

WEATHER ROUNDUP FOR IOWA
NATIONAL WEATHER SERVICE DES MOINES IA
100 AM CST TUE NOV 25 2014

NOTE: "FAIR" INDICATES FEW OR NO CLOUDS BELOW 12,000 FEET WITH NO
SIGNIFICANT WEATHER AND/OR OBSTRUCTIONS TO VISIBILITY.

* - THESE STATIONS ARE NOT NWS STATIONS...THUS NOT UNDER NWS
QUALITY CONTROL.  THEY ALSO DO NOT REPORT WEATHER SUCH
AS PRECIPITATION OR FOG.

IAZ001>003-012>014-020>022-031>034-043>046-250800-
   NORTHWEST IOWA

CITY           SKY/WX    TMP DP  RH WIND       PRES   REMARKS
CARROLL *      CLEAR     19  14  79 NW12      30.04R WCI   7
CHEROKEE *     CLEAR     18  10  73 NW7       30.05R WCI   8
DENISON *      CLEAR     19   9  63 NW9G15    30.05R WCI   9
LE MARS *      CLEAR     18   9  68 W7        30.08S WCI   8
ORANGE CITY *  CLEAR     16   7  67 NW8       30.04R WCI   5
SHELDON *      CLEAR     16   7  67 NW10      30.02S WCI   3
SIOUX CITY     CLEAR     21   8  57 NW10      30.09S WCI  10
SPENCER        CLEAR     15   9  76 NW6       30.02R WCI   6
STORM LAKE *   CLEAR     18  10  73 NW16      30.03R WCI   3
$$

IAZ055>058-069>071-079>083-090>094-250800-
   SOUTHWEST IOWA

CITY           SKY/WX    TMP DP  RH WIND       PRES   REMARKS
ATLANTIC *     CLEAR     21  12  68 NW12      30.06R WCI   9
AUDUBON *      CLEAR     21  10  63 NW10G17   30.04R WCI  10
CLARINDA *     CLEAR     25  12  58 NW9G16    30.12R WCI  15
COUNCIL BLFS * CLEAR     23   7  50 NW12G21   30.08S WCI  12
CRESTON *      CLEAR     21  16  79 NW13      30.05R WCI   9
HARLAN  *      CLEAR     21  10  63 NW14      30.10R WCI   8
LAMONI         CLEAR     24  16  71 NW16      30.04R WCI  11
RED OAK *      CLEAR     23  10  58 NW7       30.10R WCI  15
SHENANDOAH *   CLEAR     23  10  58 CALM      30.13R
$$

IAZ047>049-059>061-072>074-084-250800-
   CENTRAL IOWA

CITY           SKY/WX    TMP DP  RH WIND       PRES   REMARKS
AMES           PTCLDY    21  13  71 NW18      30.00R WCI   6
ANKENY *       CLOUDY    23  16  74 NW16G23   30.01R WCI  10
CHARITON *     CLOUDY    25  16  68 NW15G24   30.01R WCI  12
DES MOINES     CLEAR     24  15  68 NW17      30.02R WCI  11
GRINNELL*      CLOUDY    23  19  86 NW15      29.97R WCI  10
KNOXVILLE *    CLOUDY    25  16  68 NW22      29.99R WCI  10
MARSHALLTOWN   CLOUDY    20  15  81 NW18      29.97R WCI   5
PELLA *        MOCLDY    27  19  74 NW17G24   30.00R WCI  14
PERRY *          N/A     23  16  74 NW15G22   30.03R WCI  10
$$

IAZ004>006-015-016-023>025-035-036-250800-
   NORTH CENTRAL IOWA

CITY           SKY/WX    TMP DP  RH WIND       PRES   REMARKS
ALGONA *       CLEAR     18  12  79 NW14G22   29.99R WCI   4
CLARION *      FLURRIES  19  14  79 NW21      29.98R WCI   3
ESTHERVILLE    CLEAR     15   9  76 NW15      29.99R WCI   0
FORT DODGE *   CLEAR     18  10  73 NW8       30.01R WCI   7
MASON CITY     CLOUDY    14  10  84 NW17      29.96R WCI  -3
FOREST CITY *  CLEAR     16  12  86 NW13      29.95R WCI   2
IOWA FALLS *   CLOUDY    19  14  79 NW18G24   29.97R WCI   4
$$

IAZ007>011-017>019-026>030-037>042-050>054-066-250800-
   NORTHEAST IOWA

CITY           SKY/WX    TMP DP  RH WIND       PRES   REMARKS
CEDAR RAPIDS   CLOUDY    18  13  80 NW16      29.94R WCI   3
CHARLES CITY * FLURRIES  14   9  79 NW15      29.94R WCI  -1
CLINTON *      CLOUDY    19  14  79 W16       29.94R WCI   5
DECORAH *      CLOUDY    18  12  79 NW9       29.88R WCI   6
DUBUQUE        CLOUDY    17  12  80 NW15      29.87R WCI   2
MONTICELLO *   CLOUDY    18  12  79 W13G21    29.92R WCI   4
OELWEIN *      CLOUDY    16  10  79 NW15      29.92R WCI   1
WATERLOO       CLOUDY    15  10  80 NW9       29.96R WCI   3
$$

IAZ064-065-067-068-078-250800-
   EAST CENTRAL IOWA

CITY           SKY/WX    TMP DP  RH WIND       PRES   REMARKS
DAVENPORT      FLURRIES  19  13  77 NW16      29.93R WCI   4
MT. PLEASANT * CLOUDY    23  18  80 W14G23    29.98R WCI  11
MUSCATINE *    CLOUDY    25  18  74 NW14G23   29.97R WCI  13
QUAD CITIES    CLOUDY    22  14  71 W18G25    29.93R WCI   7
$$

IAZ062-063-075>077-085>089-095>099-250800-
   SOUTHEAST IOWA

CITY           SKY/WX    TMP DP  RH WIND       PRES   REMARKS
BURLINGTON     CLOUDY    26  20  77 W10       29.97R WCI  16
FAIRFIELD *    CLOUDY    25  18  74 NW20G25   29.98R WCI  11
FORT MADISON * CLOUDY    28  21  74 W10G17    29.98R WCI  19
KEOKUK *       CLOUDY    28  21  74 W15G22    29.98R WCI  17
OSKALOOSA *    CLOUDY    25  19  80 NW15      29.99R WCI  12
CENTERVILLE *  CLOUDY    27  19  74 W17       30.02R WCI  14
OTTUMWA        CLOUDY    25  17  72 NW8       29.98R WCI  16
WASHINGTON *   MIX PCPN  23  21  93 NW17G24   29.97R WCI   9
$$

ABBREVIATIONS USED IN REMARKS
   TC - TEMPERATURES IN CELSIUS
  WCI - WIND CHILL INDEX
   HX - HEAT INDEX
  VSB - VISIBILITY
$$



USA.gov is the U.S. government's official web portal to all federal, state and local government web resources and services.